Riverton, WY

5:20 AM MST on February 26, 2017 (GMT -0700)
Thermopolis

Weather History for KTBX - December, 2013

Change the Weather History Date:

Monday, December 16, 2013

  Actual Average (KRIW) Record (KRIW)
Temperature  
Mean Temperature 37 °F -  
Max Temperature 41 °F 30 °F 55 °F (2013)
Min Temperature 33 °F 0 °F -10 °F (2008)
Degree Days  
Heating Degree Days 28    
Moisture  
Dew Point 10 °F    
Average Humidity 31    
Maximum Humidity 41    
Minimum Humidity 24    
Precipitation  
Precipitation 0.00 in - - ()
Sea Level Pressure  
Sea Level Pressure 30.25 in    
Wind  
Wind Speed 8 mph (WSW)    
Max Wind Speed 21 mph    
Max Gust Speed 26 mph    
Visibility 10 miles    
Events      
Averages and records for this station are not official NWS values.
T = Trace of Precipitation, MM = Missing Value Source: NWS Daily Summary

Daily Weather History Graph

Daily Weather History Graph

Search for Another Location

Airport or City:

Trip Planner

Search our weather history database for the weather conditions in past years. The results will help you decide how hot, cold, wet, or windy it might be!

Date:

Astronomy

Dec. 16, 2013 Rise Set
Actual Time 7:39 AM MST 4:37 PM MST
Civil Twilight 7:07 AM MST 5:10 PM MST
Nautical Twilight 6:30 AM MST 5:46 PM MST
Astronomical Twilight 5:56 AM MST 6:21 PM MST
Moon 4:32 PM MST (12/16) 6:49 AM MST (12/16)
Length of Visible Light 10h 03m
Length of Day
8h 58m
Full, 100% of the Moon is Illuminated
Dec 16
Full
Dec 17
Full
Dec 25
Last Quarter
Jan 1
New
Jan 7
First Quarter

Hourly Weather History & Observations

Time (MST) Temp. Windchill Dew Point Humidity Pressure Visibility Wind Dir Wind Speed Gust Speed Precip Events Conditions
12:15 AM 37.4 °F 34.9 °F 8.6 °F 30% 30.19 in 10.0 mi SSE 3.5 mph - N/A   Clear
12:35 AM 37.4 °F 33.8 °F 8.6 °F 30% 30.20 in 10.0 mi SSE 4.6 mph - N/A   Clear
12:55 AM 37.4 °F 33.8 °F 6.8 °F 28% 30.19 in 10.0 mi SSE 4.6 mph - N/A   Clear
1:15 AM 37.4 °F 33.8 °F 8.6 °F 30% 30.20 in 10.0 mi SSE 4.6 mph - N/A   Clear
1:35 AM 39.2 °F - 6.8 °F 26% 30.19 in 10.0 mi Calm Calm - N/A   Clear
1:55 AM 37.4 °F 34.9 °F 8.6 °F 30% 30.19 in 10.0 mi SE 3.5 mph - N/A   Clear
2:15 AM 39.2 °F 35.9 °F 5.0 °F 24% 30.20 in 10.0 mi East 4.6 mph - N/A   Clear
2:35 AM 39.2 °F 34.2 °F 5.0 °F 24% 30.20 in 10.0 mi East 6.9 mph - N/A   Clear
2:55 AM 37.4 °F 32.8 °F 8.6 °F 30% 30.20 in 10.0 mi ESE 5.8 mph - N/A   Clear
3:35 AM 35.6 °F 28.6 °F 10.4 °F 35% 30.19 in 10.0 mi SE 9.2 mph - N/A   Clear
3:55 AM 35.6 °F 28.6 °F 10.4 °F 35% 30.19 in 10.0 mi SE 9.2 mph - N/A   Clear
4:15 AM 35.6 °F 28.6 °F 10.4 °F 35% 30.19 in 10.0 mi SE 9.2 mph - N/A   Clear
4:35 AM 37.4 °F 32.1 °F 6.8 °F 28% 30.20 in 10.0 mi SE 6.9 mph - N/A   Clear
4:55 AM 37.4 °F 32.1 °F 6.8 °F 28% 30.20 in 10.0 mi ESE 6.9 mph - N/A   Clear
5:15 AM 37.4 °F 31.4 °F 6.8 °F 28% 30.20 in 10.0 mi East 8.1 mph - N/A   Clear
5:35 AM 37.4 °F 32.8 °F 8.6 °F 30% 30.20 in 10.0 mi ENE 5.8 mph - N/A   Clear
5:55 AM 39.2 °F 35.0 °F 8.6 °F 28% 30.21 in 10.0 mi NNE 5.8 mph - N/A   Clear
6:15 AM 39.2 °F 35.0 °F 8.6 °F 28% 30.21 in 10.0 mi NNW 5.8 mph - N/A   Clear
6:35 AM 37.4 °F - 8.6 °F 30% 30.21 in 10.0 mi Calm Calm - N/A   Clear
6:55 AM 39.2 °F 32.0 °F 8.6 °F 28% 30.21 in 10.0 mi NW 11.5 mph 17.3 mph N/A   Clear
7:15 AM 37.4 °F 28.5 °F 8.6 °F 30% 30.22 in 10.0 mi NW 15.0 mph - N/A   Clear
7:35 AM 37.4 °F 28.9 °F 8.6 °F 30% 30.23 in 10.0 mi NW 13.8 mph - N/A   Clear
7:55 AM 37.4 °F 30.3 °F 8.6 °F 30% 30.23 in 10.0 mi NW 10.4 mph - N/A   Clear
8:15 AM 37.4 °F 33.8 °F 8.6 °F 30% 30.24 in 10.0 mi WNW 4.6 mph - N/A   Clear
8:35 AM 37.4 °F 30.8 °F 8.6 °F 30% 30.24 in 10.0 mi South 9.2 mph - N/A   Clear
8:55 AM 37.4 °F 26.9 °F 8.6 °F 30% 30.23 in 10.0 mi SSE 20.7 mph - N/A   Clear
9:15 AM 35.6 °F 26.6 °F 10.4 °F 35% 30.25 in 10.0 mi SSE 13.8 mph - N/A   Clear
9:35 AM 33.8 °F 25.3 °F 12.2 °F 41% 30.25 in 10.0 mi SE 11.5 mph - N/A   Clear
9:55 AM 35.6 °F 29.2 °F 10.4 °F 35% 30.26 in 10.0 mi SSE 8.1 mph - N/A   Clear
10:15 AM 35.6 °F 29.2 °F 12.2 °F 38% 30.26 in 10.0 mi SSE 8.1 mph - N/A   Clear
10:35 AM 35.6 °F 25.9 °F 10.4 °F 35% 30.26 in 10.0 mi South 16.1 mph 21.9 mph N/A   Clear
10:55 AM 37.4 °F 28.5 °F 12.2 °F 36% 30.26 in 10.0 mi SSW 15.0 mph 26.5 mph N/A   Clear
11:15 AM 37.4 °F 26.9 °F 14.0 °F 38% 30.26 in 10.0 mi WSW 20.7 mph 25.3 mph N/A   Clear
11:35 AM 37.4 °F 27.5 °F 12.2 °F 36% 30.26 in 10.0 mi WSW 18.4 mph - N/A   Clear
11:55 AM 37.4 °F 28.9 °F 14.0 °F 38% 30.25 in 10.0 mi SW 13.8 mph - N/A   Clear
12:15 PM 39.2 °F 32.5 °F 14.0 °F 36% 30.25 in 10.0 mi SW 10.4 mph - N/A   Clear
12:35 PM 39.2 °F 31.2 °F 14.0 °F 36% 30.25 in 10.0 mi WSW 13.8 mph - N/A   Clear
12:55 PM 41.0 °F 33.9 °F 14.0 °F 33% 30.24 in 10.0 mi WSW 12.7 mph - N/A   Clear
1:15 PM 41.0 °F 34.7 °F 14.0 °F 33% 30.23 in 10.0 mi SW 10.4 mph - N/A   Clear
1:35 PM 39.2 °F 33.0 °F 14.0 °F 36% 30.23 in 10.0 mi SW 9.2 mph - N/A   Clear
1:55 PM 39.2 °F 32.0 °F 14.0 °F 36% 30.25 in 10.0 mi West 11.5 mph - N/A   Clear
2:15 PM 37.4 °F 30.8 °F 14.0 °F 38% 30.24 in 10.0 mi West 9.2 mph - N/A   Clear
2:35 PM 39.2 °F 34.2 °F 12.2 °F 33% 30.25 in 10.0 mi West 6.9 mph - N/A   Clear
2:55 PM 41.0 °F 36.4 °F 8.6 °F 26% 30.26 in 10.0 mi West 6.9 mph - N/A   Clear
3:15 PM 41.0 °F 36.4 °F 8.6 °F 26% 30.27 in 10.0 mi NW 6.9 mph - N/A   Clear
3:35 PM 41.0 °F - 10.4 °F 29% 30.27 in 10.0 mi Calm Calm - N/A   Clear
3:55 PM 41.0 °F 37.1 °F 6.8 °F 24% 30.28 in 10.0 mi WNW 5.8 mph - N/A   Clear
4:15 PM 41.0 °F 35.8 °F 6.8 °F 24% 30.28 in 10.0 mi NW 8.1 mph - N/A   Clear
4:35 PM 41.0 °F 34.3 °F 8.6 °F 26% 30.28 in 10.0 mi NW 11.5 mph - N/A   Clear
4:55 PM 37.4 °F 29.8 °F 8.6 °F 30% 30.28 in 10.0 mi NW 11.5 mph - N/A   Clear
5:15 PM 37.4 °F 28.9 °F 8.6 °F 30% 30.28 in 10.0 mi North 13.8 mph - N/A   Clear
5:35 PM 37.4 °F 29.8 °F 8.6 °F 30% 30.30 in 10.0 mi NNW 11.5 mph - N/A   Clear
5:55 PM 37.4 °F 30.3 °F 10.4 °F 33% 30.30 in 10.0 mi NW 10.4 mph - N/A   Clear
6:15 PM 37.4 °F 29.8 °F 10.4 °F 33% 30.30 in 10.0 mi NW 11.5 mph - N/A   Clear
6:35 PM 37.4 °F 30.3 °F 10.4 °F 33% 30.30 in 10.0 mi NW 10.4 mph - N/A   Clear
6:55 PM 37.4 °F 28.9 °F 10.4 °F 33% 30.30 in 10.0 mi NW 13.8 mph - N/A   Clear
7:15 PM 37.4 °F 28.9 °F 10.4 °F 33% 30.30 in 10.0 mi NW 13.8 mph - N/A   Clear
7:35 PM 37.4 °F 29.8 °F 10.4 °F 33% 30.31 in 10.0 mi NW 11.5 mph - N/A   Clear
7:55 PM 37.4 °F 29.8 °F 10.4 °F 33% 30.31 in 10.0 mi WNW 11.5 mph - N/A   Clear
8:15 PM 37.4 °F 30.8 °F 10.4 °F 33% 30.31 in 10.0 mi NW 9.2 mph - N/A   Clear
8:35 PM 37.4 °F 32.8 °F 10.4 °F 33% 30.31 in 10.0 mi NNW 5.8 mph - N/A   Clear
8:55 PM 37.4 °F - 10.4 °F 33% 30.31 in 10.0 mi Calm Calm - N/A   Clear
9:15 PM 39.2 °F 34.2 °F 10.4 °F 31% 30.33 in 10.0 mi West 6.9 mph - N/A   Clear
9:35 PM 37.4 °F 32.1 °F 10.4 °F 33% 30.31 in 10.0 mi ESE 6.9 mph - N/A   Clear
9:55 PM 37.4 °F - 10.4 °F 33% 30.33 in 10.0 mi Calm Calm - N/A   Scattered Clouds
10:15 PM 39.2 °F - 8.6 °F 28% 30.33 in 10.0 mi Calm Calm - N/A   Scattered Clouds
11:15 PM 39.2 °F 33.0 °F 10.4 °F 31% 30.35 in 10.0 mi WSW 9.2 mph - N/A   Overcast
11:35 PM 41.0 °F 36.4 °F 10.4 °F 29% 30.35 in 10.0 mi West 6.9 mph - N/A   Overcast
11:55 PM 39.2 °F 35.0 °F 10.4 °F 31% 30.35 in 10.0 mi West 5.8 mph - N/A   Overcast